Regional Weather Roundup
Issued by NWS

Home | Current Version | Previous Version | Graphics & Text | Print | Product List | Glossary On
Versions: 1 2 3 4 5 6 7 8 9 10 11 12 13 14 15 16 17 18 19 20 21 22 23 24 25 26 27 28 29 30 31 32 33 34 35 36 37 38 39 40 41 42 43 44 45 46 47 48 49 50
256
ASUS43 KLSX 111307
RWRMO

WEATHER SUMMARY FOR MISSOURI
NATIONAL WEATHER SERVICE SPRINGFIELD MO
700 AM CST MON DEC 11 2017

NOTE: "FAIR" INDICATES FEW OR NO CLOUDS BELOW 12,000 FEET WITH NO
       SIGNIFICANT WEATHER AND/OR OBSTRUCTIONS TO VISIBILITY.
       CURRENT SKY AND/OR WEATHER CONDITIONS ARE NOT AVAILABLE FOR
       CHILLICOTHE AND FARMINGTON.

MOZ001>031-035>038-043-044-053-054-111400-
...NORTHERN AND WESTERN MISSOURI...

CITY           SKY/WX    TMP DP  RH WIND       PRES   REMARKS
KANSAS CTY INT PTCLDY    36  19  50 SW10      29.95S WCI  28
KANSAS C DTWN  PTCLDY    36  21  54 SW7       29.96F
LEE`S SUMMIT   CLEAR     41  20  43 W10       29.96F
ST JOSEPH      CLOUDY    31  21  66 S5        29.95R WCI  26
CHILLICOTHE      N/A     39  23  52 SW6       29.91R
KIRKSVILLE     CLOUDY    35  27  72 SW8       29.85F WCI  29

$$
MOZ066>068-077>081-088>096-101>105-111400-
...SOUTHWEST MISSOURI...

CITY           SKY/WX    TMP DP  RH WIND       PRES   REMARKS
SPRINGFIELD    CLEAR     38  23  55 SW12      30.05S
JOPLIN         CLEAR     43  23  45 SW12      30.08F
BRANSON        CLEAR     46  19  34 SW13      30.10S

$$
MOZ032>034-039>042-045>050-055>058-069>072-111400-
...CENTRAL MISSOURI...

CITY           SKY/WX    TMP DP  RH WIND       PRES   REMARKS
COLUMBIA       PTCLDY    32  25  75 S9        29.94F WCI  24
JEFFERSON CITY CLEAR     36  24  62 E6        29.97F
ROLLA          CLEAR     38  23  55 S14       29.99F WCI  30
SEDALIA        CLEAR     39  24  55 SW16      29.96F
WHITEMAN AFB   CLEAR     37  21  51 SW12      29.91F WCI  29
WARRENSBURG    CLEAR     34  21  60 S7        29.96F WCI  28
OSAGE BEACH    CLEAR     32  23  69 S6        30.01F WCI  26

$$
MOZ051-052-059>065-111400-
...EAST CENTRAL MISSOURI...

CITY           SKY/WX    TMP DP  RH WIND       PRES   REMARKS
ST LOUIS INTL  MOCLDY    36  26  67 S6        30.00F
SPIRIT OF STL  MOCLDY    26  24  92 CALM      29.99F
ST CHARLES     PTCLDY    28  24  85 E6        29.99F WCI  22

$$
MOZ072>076-082>087-097>100-106>115-111400-
...SOUTH CENTRAL AND SOUTHEAST MISSOURI...

CITY           SKY/WX    TMP DP  RH WIND       PRES   REMARKS
CAPE GIRARDEAU CLEAR     23  20  88 E3        30.09F
FARMINGTON     PTCLDY    31  25  78 S3        30.05F
POPLAR BLUFF   CLEAR     28  25  88 CALM      30.10F
WEST PLAINS    CLEAR     35  23  61 W8        30.09S WCI  29

$$



USA.gov is the U.S. government's official web portal to all federal, state and local government web resources and services.